Weather History for Scottsbluff, NE

Change the Weather History Date:

Sunday, May 6, 2012

  Actual Average Record
Temperature  
Mean Temperature 53 °F 54 °F  
Max Temperature 66 °F 69 °F 91 °F (1966)
Min Temperature 39 °F 39 °F 16 °F (1898)
Degree Days  
Heating Degree Days 12 12  
Month to date heating degree days 24 75  
Since 1 July heating degree days 5512 6368  
Cooling Degree Days 0 0  
Month to date cooling degree days 2 0  
Year to date cooling degree days 12 2  
Growing Degree Days 2 (Base 50)    
Moisture  
Dew Point 31 °F    
Average Humidity 54    
Maximum Humidity 85    
Minimum Humidity 22    
Precipitation  
Precipitation 0.00 in 0.06 in 0.81 in (1932)
Month to date precipitation 0.16 0.39  
Year to date precipitation 1.99 4.23  
Snow  
Snow 0.00 in 0.00 in 3.00 in (1978)
Month to date snowfall 0.0 0.2  
Since 1 July snowfall 20.4 41.8  
Snow Depth 0.00 in    
Sea Level Pressure  
Sea Level Pressure 30.15 in    
Wind  
Wind Speed 8 mph (NNW)    
Max Wind Speed 18 mph    
Max Gust Speed 24 mph    
Visibility 10 miles    
Events      
T = Trace of Precipitation, MM = Missing Value Source: NWS Daily Summary

Daily Weather History Graph

Daily Weather History Graph

Search for Another Location

Airport:

Trip Planner

Search our weather history database for the weather conditions in past years. The results will help you decide how hot, cold, wet, or windy it might be!

Date:

Astronomy

May. 06, 2012 Rise Set
Actual Time 5:43 AM MDT 7:59 PM MDT
Civil Twilight 5:12 AM MDT 8:30 PM MDT
Nautical Twilight 4:34 AM MDT 9:08 PM MDT
Astronomical Twilight 3:52 AM MDT 9:50 PM MDT
Moon 9:08 PM MDT (5/6) 5:55 AM MDT (5/6)
Length of Visible Light 15h 17m
Length of Day
14h 15m
Waxing Gibbous, 99% of the Moon is Illuminated
May 6
Waxing Gibbous
May 12
Last Quarter
May 20
New
May 28
First Quarter
Jun 4
Full

Hourly Weather History & Observations

Time (MDT) Temp. Windchill Dew Point Humidity Pressure Visibility Wind Dir Wind Speed Gust Speed Precip Events Conditions
12:53 AM 48.0 °F - 43.0 °F 83% 30.06 in 10.0 mi WNW 11.5 mph - N/A   Partly Cloudy
1:53 AM 46.4 °F 40.1 °F 39.2 °F 76% 30.13 in 10.0 mi WNW 15.0 mph - N/A   Clear
2:53 AM 45.0 °F 38.9 °F 39.9 °F 82% 30.07 in 10.0 mi WNW 12.7 mph - N/A   Partly Cloudy
3:53 AM 44.1 °F 41.5 °F 37.9 °F 79% 30.10 in 10.0 mi WNW 4.6 mph - N/A   Clear
4:53 AM 42.1 °F 39.2 °F 37.0 °F 82% 30.14 in 10.0 mi West 4.6 mph - N/A   Clear
5:53 AM 41.0 °F 36.4 °F 36.0 °F 82% 30.16 in 10.0 mi West 6.9 mph - N/A   Clear
6:53 AM 39.0 °F 34.8 °F 36.0 °F 89% 30.19 in 10.0 mi WNW 5.8 mph - N/A   Clear
7:53 AM 45.0 °F 39.7 °F 36.0 °F 71% 30.18 in 10.0 mi NW 10.4 mph - N/A   Clear
8:53 AM 51.1 °F - 33.1 °F 50% 30.17 in 10.0 mi North 12.7 mph - N/A   Clear
9:53 AM 55.0 °F - 33.1 °F 43% 30.18 in 10.0 mi NNW 6.9 mph - N/A   Clear
10:53 AM 59.0 °F - 26.1 °F 28% 30.16 in 10.0 mi NNE 11.5 mph 19.6 mph N/A   Clear
11:53 AM 62.1 °F - 25.0 °F 24% 30.15 in 10.0 mi North 6.9 mph - N/A   Clear
12:53 PM 62.1 °F - 24.1 °F 23% 30.15 in 10.0 mi Variable 4.6 mph - N/A   Clear
1:53 PM 62.1 °F - 24.1 °F 23% 30.14 in 10.0 mi North 4.6 mph - N/A   Clear
2:53 PM 64.9 °F - 26.1 °F 23% 30.13 in 10.0 mi NNW 8.1 mph - N/A   Clear
3:53 PM 64.0 °F - 24.1 °F 22% 30.12 in 10.0 mi Variable 5.8 mph - N/A   Clear
4:53 PM 66.0 °F - 26.1 °F 22% 30.11 in 10.0 mi North 15.0 mph 18.4 mph N/A   Clear
5:53 PM 63.0 °F - 25.0 °F 24% 30.14 in 10.0 mi NNE 12.7 mph - N/A   Clear
6:53 PM 59.0 °F - 25.0 °F 27% 30.15 in 10.0 mi NE 11.5 mph 23.0 mph N/A   Clear
7:53 PM 57.9 °F - 28.0 °F 32% 30.16 in 10.0 mi NE 9.2 mph - N/A   Partly Cloudy
8:53 PM 55.0 °F - 30.9 °F 40% 30.19 in 10.0 mi ENE 5.8 mph - N/A   Clear
9:53 PM 53.1 °F - 32.0 °F 45% 30.21 in 10.0 mi NE 6.9 mph - N/A   Clear
10:53 PM 51.1 °F - 32.0 °F 48% 30.20 in 10.0 mi NNE 8.1 mph - N/A   Clear
11:53 PM 50.0 °F - 32.0 °F 50% 30.19 in 10.0 mi NNE 6.9 mph - N/A   Mostly Cloudy